FW0683 Weather Reports


time (UTC)temp
F
wind
direction
speed
knots
gust
knots
rain 1hr
in
rain 24hr
in
rain mn
in
humidity
%
barometer
mb
20260831010024 72 354 0.0 0.0 0.00 0.00 0.00 75 1019.6
20260831004524 72 82 0.0 0.0 0.00 0.00 0.00 72 1019.5
20260831003033 72 43 0.0 0.0 0.00 0.00 0.00 71 1019.3
20260831001522 72 44 0.0 0.0 0.00 0.00 0.00 70 1019.1
20260831000023 72 37 0.0 0.0 0.00 0.00 0.00 70 1018.9
20260830234533 73 34 0.0 0.0 0.00 0.00 0.00 70 1018.7
20260830233021 73 86 0.0 0.0 0.00 0.00 0.00 70 1018.9
20260830231520 74 65 0.0 0.0 0.00 0.00 0.00 67 1018.8
20260830230021 74 102 0.0 0.0 0.00 0.00 0.00 67 1018.9
20260830224518 75 86 0.0 0.0 0.00 0.00 0.00 66 1019.0
20260830223016 75 30 0.0 0.0 0.00 0.00 0.00 63 1019.2
20260830221520 75 74 0.0 0.0 0.00 0.00 0.00 63 1019.2
20260830220016 76 53 0.0 0.0 0.00 0.00 0.00 64 1019.2
20260830214514 76 102 0.0 0.0 0.00 0.00 0.00 65 1019.1
20260830213017 76 84 0.0 0.0 0.00 0.00 0.00 65 1019.1
20260830211512 76 15 0.0 0.0 0.00 0.00 0.00 65 1019.2
20260830210010 77 65 0.0 0.0 0.00 0.00 0.00 64 1019.3
20260830204510 77 341 0.0 0.0 0.00 0.00 0.00 66 1019.3
20260830203008 77 341 0.0 0.0 0.00 0.00 0.00 67 1019.5
20260830201506 76 341 0.0 0.0 0.00 0.00 0.00 65 1019.9
20260830200013 76 341 0.0 0.0 0.00 0.00 0.00 67 1020.0
20260830194503 77 341 0.0 0.0 0.00 0.00 0.00 62 1020.3
20260830193000 77 335 0.0 0.0 0.00 0.00 0.00 63 1020.6
20260830191559 78 335 0.0 0.0 0.00 0.00 0.00 57 1020.7
20260830190125 79 271 0.0 0.0 0.00 0.00 0.00 55 1020.8
20260830184609 80 34 0.0 0.0 0.00 0.00 0.00 59 1020.9
20260830183103 80 33 0.0 0.0 0.00 0.00 0.00 54 1021.1
20260830181555 80 350 0.0 0.0 0.00 0.00 0.00 56 1021.1
20260830180054 79 243 0.0 0.0 0.00 0.00 0.00 59 1021.5
20260830174604 79 312 0.0 0.0 0.00 0.00 0.00 58 1021.6
20260830173049 80 59 0.0 1.7 0.00 0.00 0.00 54 1021.7
20260830171548 80 304 0.0 0.9 0.00 0.00 0.00 55 1021.8
20260830170044 81 27 0.0 0.0 0.00 0.00 0.00 59 1021.8
20260830164543 79 278 0.0 0.0 0.00 0.00 0.00 57 1022.0
20260830163043 78 8 0.0 0.0 0.00 0.00 0.00 57 1021.8
20260830161549 78 330 0.0 0.0 0.00 0.00 0.00 61 1022.1
20260830160043 80 27 0.0 0.0 0.00 0.00 0.00 56 1022.2
20260830154539 80 22 0.0 0.0 0.00 0.00 0.00 57 1022.1
20260830153035 77 246 0.0 0.0 0.00 0.00 0.00 61 1022.3
20260830151532 77 60 0.0 0.0 0.00 0.00 0.00 61 1022.5
20260830150030 76 61 0.0 0.0 0.00 0.00 0.00 64 1022.6
20260830144532 75 349 0.0 0.0 0.00 0.00 0.00 66 1022.6
20260830143028 76 353 0.0 0.0 0.00 0.00 0.00 63 1022.7
20260830141525 74 330 0.0 0.0 0.00 0.00 0.00 65 1022.8
20260830140024 73 100 0.0 0.9 0.00 0.00 0.00 71 1022.9
20260830134530 73 23 0.0 0.0 0.00 0.00 0.00 71 1022.8
20260830133017 72 86 0.0 0.0 0.00 0.00 0.00 70 1023.1
20260830131514 71 102 0.0 0.0 0.00 0.00 0.00 71 1023.3
20260830130013 70 248 0.0 0.0 0.00 0.00 0.00 75 1023.3
20260830124514 69 84 0.0 0.0 0.00 0.00 0.00 75 1023.5
20260830123005 67 84 0.0 0.0 0.00 0.00 0.00 75 1023.7
20260830121503 67 84 0.0 0.0 0.00 0.00 0.00 76 1023.7
20260830114556 61 70 0.0 0.0 0.00 0.00 0.00 85 1023.9
20260830113054 59 72 0.0 0.0 0.00 0.00 0.00 88 1023.9
20260830111548 58 72 0.0 0.0 0.00 0.00 0.00 88 1023.8
20260830110046 58 72 0.0 0.0 0.00 0.00 0.00 89 1023.7
20260830104602 57 72 0.0 0.0 0.00 0.00 0.00 90 1023.7
20260830103045 57 72 0.0 0.0 0.00 0.00 0.00 89 1023.8
20260830101544 57 72 0.0 0.0 0.00 0.00 0.00 89 1023.8
20260830100043 57 72 0.0 0.0 0.00 0.00 0.00 89 1023.8
20260830094543 57 72 0.0 0.0 0.00 0.00 0.00 88 1023.8
20260830093044 58 72 0.0 0.0 0.00 0.00 0.00 88 1023.9
20260830091540 58 72 0.0 0.0 0.00 0.00 0.00 88 1024.2
20260830090039 58 72 0.0 0.0 0.00 0.00 0.00 87 1024.3
20260830084537 57 72 0.0 0.0 0.00 0.00 0.00 88 1024.3
20260830083052 57 72 0.0 0.0 0.00 0.00 0.00 89 1024.3
20260830081535 57 72 0.0 0.0 0.00 0.00 0.00 90 1024.2
20260830080034 57 72 0.0 0.0 0.00 0.00 0.00 90 1024.2
20260830074533 56 72 0.0 0.0 0.00 0.00 0.00 90 1024.2
20260830073032 56 72 0.0 0.0 0.00 0.00 0.00 90 1024.2
20260830071532 56 72 0.0 0.0 0.00 0.00 0.00 90 1024.2
20260830070031 56 72 0.0 0.0 0.00 0.00 0.00 90 1024.2
20260830064530 56 72 0.0 0.0 0.00 0.00 0.00 91 1024.2
20260830063029 56 72 0.0 0.0 0.00 0.00 0.00 91 1024.3
20260830061532 56 72 0.0 0.0 0.00 0.00 0.00 92 1024.4
20260830060028 56 72 0.0 0.0 0.00 0.00 0.00 92 1024.5
20260830054534 55 72 0.0 0.0 0.00 0.00 0.00 93 1024.7
20260830053027 55 72 0.0 0.0 0.00 0.00 0.00 93 1024.5
20260830051526 54 72 0.0 0.0 0.00 0.00 0.00 92 1024.6
20260830050022 55 72 0.0 0.0 0.00 0.00 0.00 92 1024.5
20260830044521 55 72 0.0 0.0 0.00 0.00 0.00 92 1024.7
20260830043020 55 72 0.0 0.0 0.00 0.00 0.00 91 1024.5
20260830041521 56 72 0.0 0.0 0.00 0.00 0.00 91 1024.5
20260830040013 56 72 0.0 0.0 0.00 0.00 0.00 91 1024.6
20260830034512 57 72 0.0 0.0 0.00 0.00 0.00 91 1024.7
20260830033010 57 72 0.0 0.0 0.00 0.00 0.00 91 1024.8
20260830031510 57 73 0.0 0.0 0.00 0.00 0.00 90 1024.7
20260830030008 58 73 0.0 0.0 0.00 0.00 0.00 90 1024.7
20260830024507 58 74 0.0 0.0 0.00 0.00 0.00 89 1024.6
20260830023006 58 73 0.0 0.0 0.00 0.00 0.00 88 1024.7
20260830021506 59 73 0.0 0.0 0.00 0.00 0.00 88 1024.7
20260830020004 59 73 0.0 0.0 0.00 0.00 0.00 87 1024.7
20260830014504 60 73 0.0 0.0 0.00 0.00 0.00 86 1024.8
20260830013004 60 73 0.0 0.0 0.00 0.00 0.00 86 1024.8
20260830011503 61 73 0.0 0.0 0.00 0.00 0.00 85 1024.8